Wind_Speed
5 5 8 6 1 2 3 4 7 9 9 7 5 6 7 5 9 9 8 7 4 5 10 12 9 11 10 6 6 7 7 10 10 11 11 12 12 12 14 14 18 22 21 19 20 21 23 24 25 24 23 25 26 25 23 21 20 17 14 12 10 9 8 7 7 6 6 5 5 5 5 4 4 3 3 4 4 3 3 2 1 1 2 4 4 3
3 7 8 1 6 6 4 4 5 7 6 7 8 6 7 7 6 5 6 7 4 6 9 10 8 9 10 8 6 6 8 11 11 11 12 13 13 12 13 13 13 20 21 23 24 24 26 26 25 23 24 28 29 27 25 23 21 18 15 13 11 9 9 9 8 7 7 6 5 5 5 5 4 4 5 5 3 2 2 2 1 2 3 4 4 4
7 9 5 4 5 2 1 3 5 7 8 7 7 7 7 7 5 3 6 6 5 5 9 9 8 9 11 11 8 7 9 11 12 12 13 14 13 12 12 12 12 15 19 22 25 26 27 26 25 25 27 31 31 29 28 25 22 20 17 15 13 10 10 10 10 8 7 8 7 6 6 6 6 5 6 6 4 3 2 2 1 0 1 1 1 2
5 4 4 7 3 2 3 5 7 7 8 8 8 8 7 8 9 2 5 6 4 4 9 9 6 6 9 9 8 9 11 9 8 10 12 13 13 13 13 12 12 13 15 17 19 23 24 23 25 29 31 32 33 32 30 27 24 22 19 17 15 13 12 12 11 10 9 9 9 9 9 8 7 6 6 6 5 5 4 4 4 3 3 4 3 3
5 4 8 5 2 5 7 6 8 7 7 8 9 9 8 8 8 5 3 4 4 6 8 9 7 6 9 12 11 11 11 9 8 10 12 13 13 13 11 10 10 12 14 16 17 17 19 22 25 30 33 32 33 33 32 31 28 24 22 20 17 15 14 13 11 11 11 9 9 9 10 9 7 7 7 7 6 5 6 6 6 6 6 5 5 5
4 6 5 3 4 7 8 7 9 8 7 8 10 10 11 9 6 5 4 5 6 7 8 8 8 7 10 14 12 9 9 10 11 13 14 15 14 13 11 11 11 10 11 14 15 15 17 21 23 28 32 34 34 33 33 32 30 26 24 22 20 17 16 15 12 11 11 10 8 9 10 9 9 9 8 7 7 6 5 6 6 7 7 6 6 6
2 5 3 4 6 9 8 9 9 7 8 7 5 8 10 10 7 8 8 7 7 5 5 7 8 7 7 9 8 8 9 11 10 10 12 14 15 14 13 12 11 10 9 11 13 16 18 19 20 24 29 34 35 34 33 32 31 29 25 23 22 19 17 16 13 12 12 11 10 10 10 10 10 9 9 8 8 7 6 6 6 7 7 7 7 7
4 4 3 5 8 9 7 9 7 8 8 4 1 5 9 10 9 9 9 8 8 5 5 8 9 8 6 5 5 7 9 10 10 9 10 11 12 12 9 8 8 7 7 9 10 12 15 17 19 21 24 28 31 33 34 33 32 31 28 26 24 21 19 17 14 13 13 13 12 12 12 10 10 10 10 10 9 8 7 7 7 7 7 7 7 8
4 5 5 8 9 7 9 9 7 8 8 2 1 6 7 10 10 9 9 8 8 7 6 9 9 8 8 6 6 8 9 10 10 10 9 8 7 7 5 4 4 3 4 6 6 8 11 14 17 19 20 22 25 30 35 35 33 32 30 28 26 22 20 19 16 14 14 14 13 13 13 12 11 11 11 10 9 8 8 8 8 7 6 6 7 7
4 5 5 8 8 7 11 8 5 6 7 1 3 8 8 9 9 8 8 8 7 7 8 9 8 8 7 5 6 8 9 11 9 7 6 6 5 4 3 2 2 2 3 3 4 5 7 10 14 16 18 20 22 26 31 34 34 33 32 30 27 23 21 19 17 16 16 16 15 14 14 14 12 12 12 11 10 9 8 8 8 8 6 6 6 6
5 4 4 6 8 8 9 6 1 4 7 4 5 9 9 8 7 7 7 7 7 7 10 11 9 8 7 6 6 5 3 4 5 7 5 5 4 3 2 1 1 2 4 5 5 5 5 7 11 14 17 20 22 23 26 30 32 34 35 32 28 25 23 21 19 18 18 18 17 16 16 16 14 14 14 12 11 10 9 9 8 7 7 6 6 5
6 8 6 7 9 9 8 6 6 8 8 7 8 8 7 6 6 6 6 7 7 8 9 9 9 8 7 7 3 4 4 1 4 7 6 4 2 3 3 3 4 6 7 7 8 7 7 8 8 13 17 19 21 23 25 27 30 34 36 33 30 27 25 23 21 20 20 19 18 17 17 17 16 16 15 14 12 12 10 9 9 8 8 7 5 5
7 10 9 8 8 8 9 8 7 8 8 8 8 7 6 6 5 6 6 6 8 7 3 4 7 7 7 7 2 6 7 5 3 3 5 4 3 4 4 5 6 6 7 7 7 7 8 7 6 10 15 18 21 23 24 24 27 32 35 34 31 29 29 27 23 23 22 21 20 18 18 18 17 17 16 14 14 14 12 11 10 9 8 7 6 5
7 9 10 8 7 8 9 8 6 6 7 8 8 6 6 5 6 7 7 6 7 5 2 1 3 5 7 4 4 8 7 7 7 5 6 5 4 4 3 5 5 6 7 7 7 7 7 5 3 7 12 16 20 20 21 22 24 28 32 33 32 31 31 28 25 24 23 22 21 19 18 18 18 17 17 15 15 15 14 13 12 11 10 9 7 6
6 5 6 4 4 6 9 10 7 4 5 8 8 7 7 6 6 7 6 6 6 3 3 3 2 5 6 1 4 7 7 8 9 9 8 6 5 4 3 5 5 7 8 7 8 8 7 4 0 5 10 14 17 18 19 20 21 23 27 30 31 33 32 29 26 26 25 23 22 21 20 19 18 18 18 16 15 16 15 14 14 13 12 10 9 8
8 4 6 5 2 4 8 8 8 8 5 6 7 7 7 6 6 6 6 6 4 4 4 5 4 4 2 5 5 6 9 9 9 10 9 7 6 5 5 5 6 8 9 9 8 8 8 5 2 3 8 11 13 15 17 17 17 19 21 25 28 30 31 30 27 26 25 24 23 23 21 21 19 18 18 17 16 16 16 16 15 14 14 13 12 10
7 4 7 6 6 7 6 4 5 7 5 3 5 7 7 6 6 7 7 4 2 6 7 6 7 5 3 7 8 8 9 9 10 10 9 8 8 6 6 6 7 8 10 10 9 9 9 7 3 3 6 9 10 12 14 14 14 16 17 20 24 25 25 28 28 27 26 25 24 24 23 22 20 19 18 17 17 17 17 16 16 15 15 15 15 12
4 6 2 6 9 7 4 6 7 9 8 6 5 4 5 7 6 5 6 4 5 8 7 7 9 8 6 5 8 11 10 9 9 9 9 9 8 7 7 8 8 9 10 10 10 9 9 9 6 4 5 7 9 10 11 11 11 13 13 16 20 21 20 22 25 26 27 27 26 25 24 23 22 20 19 17 17 17 17 17 16 16 16 16 17 14
2 6 7 8 8 5 4 7 9 10 12 10 8 5 5 6 6 5 6 6 7 8 6 8 10 8 7 4 8 11 11 10 10 9 10 9 7 8 8 9 10 10 10 10 10 9 9 9 8 7 6 7 9 10 10 10 9 9 11 13 16 18 17 16 18 20 22 25 25 23 24 24 22 21 20 18 17 17 18 18 17 17 17 17 18 16
1 6 6 5 5 3 3 6 8 8 11 11 10 8 6 6 6 6 5 5 7 8 7 8 9 6 5 4 7 10 10 11 11 9 9 8 9 8 8 10 10 10 10 10 11 10 10 9 9 8 8 8 10 12 11 10 9 9 10 11 12 14 14 13 14 15 16 19 20 20 21 20 19 19 19 17 17 17 18 17 17 17 17 17 18 18
2 5 6 6 5 5 5 6 7 7 6 7 8 8 8 7 6 6 6 7 7 8 7 7 8 5 2 0 4 7 9 10 10 9 7 9 11 10 10 11 11 11 11 11 11 11 11 10 9 9 9 9 12 14 14 12 11 10 10 9 9 11 12 12 12 12 13 15 16 18 18 18 20 21 20 18 17 18 19 19 18 18 18 18 18 19
4 5 6 7 7 7 7 3 4 8 7 6 6 6 7 6 6 8 8 7 7 8 8 7 8 5 1 1 2 4 7 9 10 9 8 10 12 12 12 12 12 12 12 12 12 12 12 12 11 11 11 11 14 15 15 15 13 11 10 10 9 8 9 10 10 9 11 11 12 14 16 20 24 24 24 23 20 18 20 20 19 19 19 20 20 21
2 4 6 8 8 10 12 6 3 6 9 10 9 8 8 7 7 8 8 7 6 8 9 8 9 4 3 1 3 4 5 8 10 10 10 12 13 13 12 12 12 12 12 12 12 12 13 13 13 13 14 14 14 14 14 15 15 13 13 13 12 11 9 9 8 8 8 9 10 11 13 19 24 23 23 26 26 23 21 20 20 20 19 20 20 21
2 4 7 8 8 11 15 12 9 7 8 11 11 9 9 10 10 9 9 8 7 8 8 8 8 3 3 1 1 1 3 6 8 9 11 12 12 13 13 13 12 12 12 12 11 11 11 12 12 13 14 14 15 15 14 14 14 15 14 13 12 11 9 7 8 8 7 7 8 9 10 15 20 21 21 23 25 26 25 22 22 22 20 19 19 20
1 5 6 7 8 7 10 11 10 9 7 7 9 11 13 12 12 10 10 8 8 11 11 9 9 3 2 1 2 4 5 7 8 10 13 13 12 13 13 12 12 12 12 11 11 11 11 10 11 11 11 12 12 13 13 13 13 13 14 14 13 13 12 8 6 6 6 6 7 8 8 9 14 18 20 20 20 22 23 22 22 23 22 21 21 22
3 6 5 6 7 7 7 7 5 4 5 5 8 12 14 11 10 9 8 8 9 12 12 11 9 3 4 4 4 5 6 7 9 10 11 12 12 12 12 12 11 11 11 11 11 11 10 10 10 10 10 10 10 10 10 11 10 10 10 10 10 10 11 12 9 6 6 7 8 5 3 4 7 12 16 19 21 19 19 19 20 22 23 23 23 23
5 6 8 10 10 9 10 10 9 8 7 8 10 12 11 8 9 9 8 9 10 10 11 11 11 8 5 7 7 6 7 8 8 8 9 10 12 11 11 11 10 10 10 10 10 10 10 10 10 10 10 9 9 9 9 9 10 10 9 8 7 6 6 7 7 7 8 8 7 5 5 5 4 6 7 9 12 13 13 15 18 19 20 21 22 23
5 7 10 13 14 14 15 16 17 15 14 13 13 14 13 12 13 11 10 11 12 10 11 11 12 12 10 9 8 7 7 8 7 7 8 9 10 11 11 11 10 10 10 9 9 10 9 10 9 9 8 8 7 7 8 8 8 9 9 8 8 7 6 6 4 3 3 4 4 6 9 10 11 12 12 11 11 11 12 13 14 16 18 20 22 22
6 8 10 13 15 16 17 17 17 17 16 16 16 17 17 17 17 16 14 16 14 12 12 13 13 13 11 10 9 7 7 8 9 10 10 10 10 11 11 11 11 10 10 9 9 9 8 9 8 8 7 6 6 6 6 6 6 7 7 7 7 6 6 5 5 5 4 2 1 2 3 6 10 12 15 16 15 14 13 12 12 14 16 18 21 22
4 7 9 12 14 15 16 17 17 17 17 18 19 19 19 19 20 19 18 19 18 17 17 18 17 16 11 10 11 11 8 8 9 10 11 11 12 12 12 12 12 12 11 9 8 8 8 8 8 7 7 5 5 5 5 5 5 5 5 5 5 5 4 4 3 4 4 3 2 3 3 3 4 5 7 9 9 10 12 12 12 14 15 17 19 21
3 5 7 9 11 13 15 16 17 18 18 19 20 21 20 20 20 20 19 18 18 18 18 17 15 13 10 11 14 16 16 15 14 14 14 14 15 15 14 14 14 13 12 10 9 9 8 8 8 7 6 5 4 4 4 4 4 4 4 4 4 3 3 3 3 2 2 2 3 4 3 3 3 4 4 5 6 8 9 10 11 12 14 16 17 18
4 6 8 9 10 11 12 15 17 18 19 20 21 21 21 19 18 17 17 16 15 15 16 15 12 10 9 10 13 16 18 18 17 17 18 17 17 18 17 16 14 13 12 12 11 9 8 8 8 6 5 4 3 3 2 2 2 2 2 2 2 2 2 2 3 2 2 3 4 4 4 4 5 5 5 5 6 7 8 9 10 11 12 14 15 16
6 7 8 8 9 11 13 15 15 14 15 15 13 14 18 19 19 19 19 18 18 15 14 13 12 11 9 8 9 12 14 15 15 17 18 16 15 16 16 15 14 13 13 12 12 10 9 7 6 6 4 3 2 2 1 1 0 1 0 1 1 1 1 2 2 2 2 3 3 4 4 5 5 6 6 6 6 7 9 9 10 11 12 12 14 14
9 9 8 8 9 11 13 13 12 12 13 9 3 6 10 13 15 17 16 16 16 13 11 12 12 12 11 10 11 12 12 13 12 12 11 10 11 13 15 16 15 14 13 12 10 9 8 7 5 4 3 2 2 1 1 1 1 1 2 1 1 1 2 2 2 3 3 4 4 5 5 5 6 6 6 7 8 8 9 10 10 11 11 11 13 13
9 9 8 8 8 10 11 11 11 12 11 6 2 3 5 6 8 11 12 14 13 11 12 13 12 12 12 12 12 13 13 13 12 9 8 8 9 10 13 14 13 12 12 12 9 7 6 6 4 3 2 2 1 2 2 1 1 1 1 2 2 3 2 3 3 4 5 6 6 6 6 6 7 8 8 9 9 9 10 11 11 12 12 12 12 13
9 9 8 8 9 9 9 9 11 11 8 5 5 5 3 4 7 9 11 12 10 8 9 11 11 10 10 11 12 11 11 13 12 7 4 3 4 6 9 11 11 12 12 10 8 5 3 3 3 2 2 2 2 2 2 3 3 3 3 3 4 4 4 4 5 5 6 7 7 7 7 7 8 9 10 10 10 10 11 11 12 12 13 13 12 13
10 9 8 8 9 8 9 10 10 11 11 8 5 1 2 4 6 6 8 10 7 4 6 8 8 8 8 10 12 11 10 12 10 5 0 2 2 2 4 3 4 9 11 8 5 4 4 4 3 3 3 2 3 4 5 5 5 5 5 6 6 5 6 6 6 6 7 7 8 8 7 8 9 9 10 11 11 12 11 12 12 12 13 13 14 14
9 10 8 8 8 7 9 10 8 10 10 4 2 5 5 5 5 4 7 8 5 2 5 7 7 9 9 10 11 10 9 10 7 3 2 1 1 3 3 3 2 4 7 6 5 7 7 5 4 4 4 4 6 6 6 6 6 7 8 8 8 8 7 7 8 8 8 9 9 9 9 10 10 11 11 12 12 12 12 13 13 13 13 14 14 15
10 9 8 8 8 7 8 8 8 9 5 3 5 4 5 6 7 5 7 6 2 5 8 9 8 9 10 10 10 10 8 7 4 2 2 2 2 2 3 3 3 3 5 7 8 9 8 6 5 6 7 7 8 7 7 8 8 9 10 10 10 10 10 10 10 10 10 11 11 11 12 12 12 13 13 13 13 13 14 14 14 14 15 15 15 16
9 7 7 9 9 9 9 8 8 7 2 4 3 3 5 6 6 6 7 2 4 6 8 9 9 10 11 11 10 9 8 7 3 4 3 5 6 6 6 6 6 7 8 10 11 10 9 9 9 10 10 9 9 9 9 10 11 12 12 12 13 13 12 12 12 12 13 13 13 14 14 14 14 14 14 14 15 15 15 15 15 15 15 16 16 16
6 6 6 8 8 9 10 9 8 5 1 5 4 5 6 5 4 5 5 3 5 7 9 9 11 12 12 12 11 9 10 11 9 9 8 8 9 10 11 10 11 11 12 12 12 12 12 12 12 12 12 12 12 12 12 12 13 14 14 14 14 14 13 13 14 15 15 15 15 16 16 16 15 16 17 17 18 18 18 16 15 16 16 16 16 15
5 5 6 7 8 8 8 8 9 5 3 8 7 6 7 6 5 4 6 8 9 11 12 12 13 13 13 14 14 14 15 16 14 14 14 13 13 14 14 14 15 16 15 15 14 13 14 14 14 14 14 14 14 14 14 14 15 15 16 16 16 15 15 15 16 16 17 17 17 17 17 17 17 19 21 23 24 23 21 18 16 16 16 16 16 17
4 5 6 7 7 7 8 9 9 5 3 8 9 6 3 4 6 10 12 13 13 14 14 15 15 14 14 15 16 16 17 17 17 17 17 18 18 18 18 18 19 19 18 18 17 16 17 17 18 18 18 17 17 17 16 16 17 17 17 18 17 16 16 17 18 18 18 18 18 18 18 19 19 20 22 24 25 24 22 19 16 16 17 17 17 16
4 5 6 5 3 4 6 6 4 2 4 8 9 7 6 9 12 15 16 16 17 17 17 17 17 16 16 16 17 18 19 20 20 20 21 22 23 23 23 22 22 21 20 19 19 19 20 21 22 21 20 20 19 19 18 18 19 19 19 19 19 18 19 19 19 20 20 20 20 20 20 20 20 20 20 20 20 19 19 19 16 16 17 17 16 15
2 3 6 5 3 5 7 8 8 11 14 15 13 12 14 15 15 16 18 19 20 20 19 19 19 19 18 18 20 21 21 22 23 23 23 24 25 26 26 26 26 26 25 24 24 24 24 25 25 24 23 22 21 20 20 20 20 21 22 21 20 20 21 21 21 21 22 21 21 20 20 21 20 20 19 18 17 17 17 17 17 17 17 17 18 18
4 5 7 6 6 9 12 14 15 17 17 16 15 16 17 18 18 19 19 20 21 21 20 20 21 21 21 22 23 24 25 26 26 26 26 27 27 28 28 28 28 28 28 28 28 27 28 28 27 25 25 24 23 22 22 21 21 22 22 22 21 21 21 22 22 23 23 22 22 22 22 22 21 20 19 18 17 17 17 17 18 17 15 15 16 16
3 5 5 7 8 8 9 10 12 15 15 17 19 19 19 20 20 19 19 20 20 20 20 21 22 24 25 25 26 28 29 29 29 30 29 29 29 30 30 30 30 30 30 30 29 28 29 29 28 27 25 25 23 22 22 22 23 23 23 22 22 22 22 22 22 22 22 22 22 22 22 22 22 21 19 18 17 17 16 16 17 15 13 13 13 14
3 5 4 8 9 9 10 12 16 19 19 19 19 18 18 18 19 19 19 20 21 21 23 24 25 26 27 28 28 30 31 31 31 32 31 31 31 31 31 31 31 31 30 30 30 30 29 29 29 27 27 27 26 24 24 25 25 25 25 24 24 23 23 23 23 23 23 22 21 21 21 21 21 21 19 19 18 16 13 14 14 13 11 11 12 18
7 6 7 8 8 9 11 13 15 16 15 16 17 17 18 20 21 22 22 22 23 25 26 27 28 28 29 30 30 31 33 33 32 32 33 33 33 32 31 31 31 31 30 30 30 29 29 29 29 28 28 28 26 25 25 26 26 27 27 26 26 26 26 25 25 26 26 24 23 23 21 20 20 19 17 17 17 16 15 14 11 9 11 15 19 22
8 7 7 7 8 8 9 11 13 12 11 15 19 20 21 22 23 24 25 25 26 26 26 26 26 26 26 26 26 27 30 31 31 31 32 33 32 32 32 31 31 31 30 29 29 29 28 29 29 29 29 28 27 26 26 26 27 27 27 27 27 26 26 27 26 26 27 26 25 24 21 20 20 17 15 16 18 19 17 14 12 13 19 25 26 24
6 6 7 7 8 10 13 17 18 15 15 19 22 23 22 23 23 24 25 25 25 25 25 25 25 25 25 24 23 24 26 28 28 28 30 31 31 31 31 30 30 30 29 29 29 29 28 28 29 29 29 28 28 28 28 28 28 28 27 27 27 26 27 27 26 25 25 25 24 24 23 22 20 17 17 18 19 18 16 17 20 22 24 27 27 26
Wind_Direction
231 236 231 232 228 49 36 0 347 339 334 323 285 265 258 224 216 213 131 114 244 247 241 226 211 245 245 219 215 192 208 231 218 202 205 218 217 214 218 204 187 179 177 186 187 185 195 197 185 178 177 177 176 175 174 171 169 170 172 176 179 182 177 161 153 150 147 145 143 137 127 126 119 114 116 103 108 137 154 153 151 194 236 256 248 234
233 250 243 231 49 38 14 353 330 308 297 278 268 259 251 242 231 218 136 134 201 245 250 234 223 253 250 229 224 203 214 229 219 207 206 210 214 215 215 220 199 169 173 191 186 189 201 196 182 176 177 182 182 181 180 176 175 175 177 182 186 188 183 169 161 164 160 150 148 141 133 132 118 106 108 108 127 153 167 183 215 254 252 266 264 237
219 241 228 104 60 39 340 293 272 269 266 254 251 253 245 234 231 118 120 162 191 231 254 238 220 241 244 232 218 205 220 228 218 211 210 207 210 215 211 215 212 184 179 181 175 186 199 192 185 182 184 190 191 189 188 186 184 183 183 187 192 191 187 183 170 164 165 156 153 143 134 132 121 125 133 128 124 107 95 106 99 272 216 178 292 257
233 227 139 109 92 226 218 234 242 246 246 245 241 245 247 232 236 202 145 193 219 245 274 277 249 243 250 235 209 210 222 220 211 211 213 212 209 213 215 211 213 209 193 176 174 186 191 187 191 193 193 195 197 197 195 196 196 194 192 193 196 191 190 195 178 166 176 174 168 155 147 146 143 150 150 129 108 94 83 78 79 80 99 108 104 99
265 82 101 114 153 226 231 216 228 246 235 230 238 249 258 246 252 269 164 179 228 237 258 275 265 243 242 232 214 209 213 209 204 206 207 209 207 208 216 219 217 218 208 193 188 192 191 189 195 200 200 199 201 202 201 202 201 199 198 197 198 193 192 200 188 178 183 182 179 168 156 152 146 137 126 118 107 93 83 79 78 76 83 91 97 105
255 90 114 182 206 228 241 227 220 242 252 231 220 238 267 274 265 252 198 184 234 232 210 228 249 246 235 230 221 201 198 211 207 202 200 197 198 201 205 213 219 223 220 206 198 203 207 199 196 202 205 205 206 206 206 206 204 201 199 198 200 195 194 199 195 187 181 176 178 166 150 143 140 134 130 132 123 109 104 97 89 84 87 90 92 99
139 113 171 203 229 232 236 245 224 218 257 259 200 207 249 267 252 239 232 220 249 252 169 200 251 263 241 226 217 195 197 209 199 200 206 195 192 200 201 200 205 208 213 218 213 211 213 209 203 203 205 210 211 210 210 209 208 205 199 200 203 197 195 198 194 189 178 173 174 158 149 148 144 142 143 142 132 127 126 114 101 91 87 85 87 92
140 156 198 198 229 234 231 246 217 202 249 280 130 200 230 247 236 231 241 237 253 261 167 195 240 262 260 234 198 189 203 205 190 198 213 202 196 202 204 201 202 200 199 213 218 212 212 214 214 208 205 209 211 212 215 213 211 208 202 203 205 198 197 198 193 188 177 173 170 159 157 156 151 154 153 147 140 137 132 120 107 95 90 87 85 88
177 186 199 210 225 232 241 241 180 194 244 256 266 251 243 245 232 224 240 241 251 260 230 218 229 249 254 227 180 182 210 220 202 197 204 203 201 198 201 208 203 211 224 227 229 224 220 220 220 216 209 206 206 210 217 218 214 210 204 204 205 201 199 197 193 189 178 174 172 164 163 161 159 163 156 147 147 145 139 130 122 116 112 107 100 98
183 197 214 223 228 230 246 252 151 191 245 279 284 263 252 250 236 226 241 249 251 252 254 245 228 240 255 237 196 189 220 237 215 193 186 179 184 183 183 208 209 220 253 265 257 248 238 230 227 221 214 207 201 206 214 217 214 209 204 203 204 202 201 197 195 190 180 175 175 171 169 166 165 165 158 154 157 153 147 142 135 130 125 116 111 106
159 180 233 239 244 254 267 290 334 242 267 287 265 247 240 244 240 236 242 253 257 240 243 245 231 234 253 248 222 190 218 253 185 165 157 149 155 136 113 198 289 340 335 326 311 301 280 254 236 223 215 208 201 199 203 208 210 208 206 204 200 201 204 200 196 192 182 177 178 177 175 171 169 168 164 165 165 158 155 151 143 140 137 135 130 117
188 188 210 217 231 255 271 264 228 233 252 256 246 238 234 233 230 239 237 235 247 248 245 240 225 223 241 257 236 144 135 140 149 157 151 135 118 83 56 26 20 4 349 340 332 323 307 288 255 224 214 207 200 195 193 198 203 207 210 206 196 197 203 202 197 193 186 180 178 181 180 176 176 177 173 174 172 165 164 160 153 154 153 152 149 135
223 217 206 193 203 234 250 239 209 210 229 237 235 235 238 232 224 234 236 227 239 251 254 230 220 222 244 262 200 137 148 147 143 146 133 123 81 69 50 27 25 10 1 354 344 337 322 307 267 221 209 204 199 195 192 190 194 205 211 206 197 197 202 202 196 193 190 184 179 183 186 182 184 188 184 181 179 172 170 169 164 165 165 164 163 159
227 219 199 188 187 209 235 240 210 196 215 233 233 231 236 235 235 241 239 235 239 240 227 210 228 239 254 260 146 138 134 129 137 129 113 113 94 72 41 30 29 21 20 12 2 359 345 327 262 210 200 201 202 201 197 190 191 203 209 204 198 200 203 200 196 194 193 188 182 184 187 186 189 194 189 186 186 180 175 176 174 170 172 176 178 182
257 227 192 198 159 178 224 245 254 250 227 236 241 237 242 248 247 253 257 259 263 250 206 174 188 249 252 217 124 136 139 139 142 135 124 122 113 93 58 42 36 32 31 26 23 19 7 4 230 196 195 201 204 204 201 194 194 200 203 199 196 200 202 200 197 197 195 191 187 186 188 189 191 194 192 190 192 188 181 182 181 174 176 182 184 196
273 252 168 174 162 192 231 245 265 276 249 236 245 238 241 250 251 261 268 273 299 301 245 199 215 260 188 144 152 148 152 156 149 144 143 135 123 105 79 60 45 40 38 35 36 31 28 39 81 173 188 199 203 204 201 197 194 194 195 195 193 197 202 202 200 199 197 194 191 189 191 191 192 194 195 192 195 195 188 188 187 179 181 184 185 199
265 255 137 159 211 221 243 261 254 259 262 251 242 243 253 255 255 264 259 232 223 264 259 233 235 245 179 169 173 168 166 159 158 164 155 139 129 115 92 74 59 51 46 44 47 43 43 51 72 139 172 185 189 193 194 192 191 190 190 192 190 193 200 202 203 203 200 198 196 195 195 194 195 196 197 197 198 198 193 193 193 187 185 186 188 203
270 274 212 217 227 197 210 273 258 247 261 271 254 261 274 259 254 266 263 244 238 253 251 240 244 241 233 208 171 180 189 174 177 178 156 149 142 120 101 89 77 66 59 56 57 56 55 61 72 105 144 161 165 169 175 178 183 186 186 187 189 190 192 198 202 204 204 202 200 199 199 199 200 199 199 200 200 200 197 196 197 194 192 189 191 207
273 273 259 245 239 185 182 250 256 240 238 250 271 294 285 258 251 250 254 259 260 263 262 253 254 250 249 228 171 190 203 187 187 180 161 163 150 122 108 100 90 79 72 67 64 64 65 70 77 89 109 132 140 141 148 158 161 165 170 178 187 190 189 193 198 200 204 205 203 205 205 205 206 206 205 203 201 203 202 202 202 200 198 195 195 210
251 266 267 246 234 217 217 236 247 240 222 228 256 269 262 261 268 262 255 258 259 262 267 266 264 257 253 224 177 194 208 193 184 179 170 158 137 123 111 102 94 86 80 75 72 72 73 78 83 90 101 113 118 119 123 125 126 140 158 172 182 184 184 187 190 190 196 201 203 207 209 210 212 213 215 214 210 209 206 207 210 207 204 202 201 212
252 258 271 263 239 231 243 240 252 267 243 226 241 246 243 247 260 268 262 259 264 267 268 269 267 261 257 201 177 194 203 193 181 179 170 145 130 123 112 105 100 94 88 83 81 79 80 84 88 95 98 96 100 105 108 109 116 135 153 166 176 183 188 191 190 189 195 202 207 209 212 217 218 217 219 223 225 224 219 215 216 214 212 212 211 219
259 257 261 266 258 246 252 262 292 300 298 277 267 263 260 253 252 261 258 254 260 267 271 275 275 278 29 70 234 218 200 187 180 177 162 141 132 124 117 113 108 103 99 93 89 86 84 86 87 92 92 86 89 96 103 111 117 126 139 148 158 175 191 196 199 201 204 208 212 213 217 224 226 225 226 226 228 232 229 223 222 222 220 219 219 224
357 287 268 264 263 266 274 279 270 286 291 283 277 276 278 275 265 264 266 271 273 267 269 274 274 284 62 70 255 248 211 182 178 175 157 142 135 130 127 121 115 111 107 101 97 92 88 87 85 86 86 85 88 94 104 114 120 128 140 150 159 170 182 193 201 204 207 212 212 214 224 232 234 236 241 239 236 237 237 232 229 228 226 223 221 224
97 261 259 262 263 265 269 263 242 239 262 269 264 262 264 264 265 271 277 284 285 273 268 269 266 261 78 38 256 197 181 166 171 174 158 146 140 138 135 129 124 121 116 111 105 101 97 93 89 87 85 85 87 91 96 104 114 122 130 140 151 161 173 198 214 205 196 203 216 224 233 241 242 242 245 245 242 242 244 242 239 238 235 229 224 224
175 250 248 259 265 255 250 249 240 231 240 258 260 255 254 260 272 280 281 282 272 265 264 265 267 262 121 196 152 134 161 163 170 177 163 154 152 150 144 139 135 130 125 120 114 110 106 100 97 93 92 91 91 92 94 96 102 109 115 123 129 133 137 147 183 205 199 197 210 223 230 245 253 249 245 244 244 243 240 238 241 244 241 236 233 232
270 266 263 262 263 260 253 253 258 259 258 272 276 262 253 259 278 282 277 269 260 263 265 263 268 265 141 183 186 171 193 188 179 184 176 166 163 158 150 145 143 138 135 129 122 116 111 106 103 99 97 98 98 99 100 99 99 101 106 111 114 123 129 129 138 157 168 177 184 189 202 231 251 255 254 253 251 246 241 240 244 247 244 241 239 235
267 262 263 263 263 269 276 285 305 314 296 285 286 278 263 256 266 270 267 263 265 273 269 261 270 273 229 216 212 201 218 214 187 189 198 183 168 162 157 153 152 148 143 138 130 125 118 111 107 103 101 100 101 102 102 101 100 98 99 100 99 106 123 131 144 160 166 176 180 182 189 195 223 254 262 258 254 254 259 262 259 254 247 244 243 240
262 255 254 259 263 268 275 282 288 288 281 278 280 278 272 263 258 257 259 266 275 278 267 265 276 279 271 264 249 218 217 231 218 212 224 204 174 168 166 162 163 160 155 149 140 134 126 118 112 106 103 100 101 103 101 100 100 99 98 97 94 90 95 104 102 115 171 203 220 221 222 231 251 264 266 269 274 276 278 275 269 262 254 249 246 243
264 260 255 261 262 263 266 270 273 274 273 273 271 270 270 269 264 261 261 266 271 268 268 280 287 282 284 291 277 243 219 238 243 233 235 222 194 186 182 179 183 181 172 160 147 139 134 127 119 113 107 102 101 103 102 99 97 97 98 94 92 85 79 86 82 70 65 42 339 294 265 263 268 268 266 269 272 272 274 274 269 265 260 252 247 244
268 266 263 269 270 269 269 270 270 271 271 270 267 265 265 264 263 262 261 263 265 265 269 279 283 280 282 287 282 275 270 273 264 245 237 227 211 202 199 202 208 206 198 182 160 150 142 133 128 122 117 108 102 101 99 97 93 94 93 85 78 72 63 62 67 67 63 46 13 351 353 327 298 287 277 275 272 266 269 269 266 264 261 255 251 247
232 267 274 276 276 274 275 279 276 271 271 272 269 265 263 262 261 261 262 263 264 266 270 276 279 280 280 280 277 272 268 268 266 256 244 231 224 223 223 224 224 219 212 195 173 165 155 143 136 130 123 116 108 103 100 99 100 102 97 82 67 56 40 25 20 26 28 8 344 337 335 315 298 290 282 282 281 277 274 269 266 263 258 258 255 249
226 265 276 275 272 269 270 274 274 273 273 270 265 263 262 261 261 261 261 263 264 269 274 276 274 272 277 283 281 274 267 261 257 257 254 244 240 238 234 231 229 223 212 195 181 175 165 151 143 135 130 126 120 115 108 102 105 113 105 83 77 61 25 4 356 354 350 334 326 324 315 302 295 290 284 281 278 277 273 267 265 260 254 254 255 252
247 264 274 271 269 272 272 272 277 280 274 267 268 272 267 262 263 263 260 261 265 267 269 267 267 274 285 292 288 283 280 273 267 266 265 257 248 242 237 236 236 228 212 195 185 177 167 154 144 140 141 141 142 140 113 67 108 171 253 9 43 34 4 7 347 320 312 313 312 307 299 295 292 288 285 282 278 275 271 267 263 257 253 251 251 253
261 267 273 272 270 272 276 281 284 273 260 260 302 318 287 275 273 272 270 271 273 275 280 281 286 293 295 290 288 288 292 295 292 283 275 263 248 243 245 245 240 226 205 189 182 175 166 156 145 141 144 149 164 214 289 298 277 283 296 314 329 318 324 324 307 301 302 301 300 297 296 294 291 289 287 285 283 280 274 269 263 256 254 255 254 253
263 264 265 267 267 271 277 276 266 258 257 266 305 321 311 305 292 287 284 280 278 285 294 293 293 296 292 289 290 290 295 299 294 283 275 261 246 246 249 243 228 206 192 187 183 171 159 160 162 158 164 181 219 275 288 258 236 254 260 251 264 286 299 298 292 295 299 299 299 300 296 292 292 292 293 292 290 286 280 274 268 260 258 259 256 250
259 262 262 263 261 264 268 256 250 263 276 262 236 235 257 276 276 278 276 274 278 290 296 295 295 296 294 293 290 290 296 296 283 275 290 282 249 247 247 237 215 195 189 186 182 179 177 187 198 199 203 227 262 270 263 264 269 265 257 259 265 273 279 285 288 290 292 293 295 292 287 288 293 294 294 295 292 288 284 278 271 264 261 260 255 250
253 256 254 259 259 258 262 257 258 272 272 253 237 274 335 302 297 295 284 283 287 290 299 309 310 306 299 296 296 297 298 291 273 250 159 25 358 319 279 266 214 195 191 184 187 224 249 247 239 237 242 256 266 268 272 277 278 276 272 270 267 267 273 278 279 280 285 287 286 281 277 282 289 291 293 296 295 291 288 282 275 268 262 260 255 249
249 254 253 255 256 254 261 263 261 265 266 254 91 66 42 2 349 335 292 282 278 288 315 316 308 301 298 297 302 305 296 284 273 229 155 173 14 12 343 342 352 208 207 212 238 255 257 254 250 253 264 270 271 274 277 275 273 275 275 272 268 266 269 272 272 276 280 282 280 276 277 281 283 286 288 290 292 292 289 284 278 270 262 260 256 251
245 246 250 253 254 251 255 261 258 258 272 51 72 63 46 23 1 326 279 273 23 32 358 338 321 315 312 302 303 305 290 276 281 35 38 304 298 335 321 301 302 285 258 252 258 262 262 263 273 278 278 275 272 272 269 267 270 271 269 267 265 265 266 268 270 274 278 281 280 278 278 279 282 285 286 285 287 288 287 284 278 269 262 258 256 255
245 241 243 246 249 249 249 255 259 259 281 64 44 352 10 18 357 308 267 272 45 22 353 340 327 324 321 308 301 296 281 279 319 16 347 292 280 285 285 277 277 279 270 262 262 265 270 278 284 283 278 272 270 270 270 268 267 265 264 264 262 262 265 267 269 274 277 280 280 278 279 280 282 284 284 284 285 286 286 284 275 266 261 256 255 256
243 243 248 249 250 250 250 255 259 259 53 61 27 331 327 324 302 274 272 336 355 324 319 321 313 311 312 305 298 290 285 295 320 328 303 280 278 282 281 277 277 276 273 271 272 275 279 282 282 280 277 275 273 272 270 267 265 263 262 261 259 259 262 265 269 273 276 277 277 276 276 277 278 279 279 280 282 285 287 284 273 264 259 255 254 251
250 245 247 248 252 253 254 260 262 259 35 29 357 323 307 283 265 291 324 331 319 311 314 312 304 304 305 299 293 289 290 295 303 304 295 285 283 286 285 282 279 277 276 277 279 283 284 283 282 280 278 276 273 271 269 266 264 262 261 260 259 261 264 267 268 270 271 272 273 272 272 272 273 275 278 281 282 284 286 284 273 261 255 253 251 246
267 263 250 242 251 258 254 257 260 253 29 7 344 331 320 299 309 327 327 315 307 308 307 300 298 299 299 297 294 291 291 294 295 294 293 289 285 283 282 282 281 280 281 282 284 287 286 284 283 281 279 277 274 271 269 267 265 264 263 262 262 264 266 266 266 267 268 269 269 267 266 266 268 270 273 277 280 282 286 286 273 257 252 250 245 238
263 262 265 262 276 274 252 249 270 317 329 322 316 307 300 303 308 312 309 303 302 301 298 295 294 293 292 293 292 290 289 289 289 288 286 285 283 281 280 280 280 281 283 285 285 288 289 286 283 281 279 277 274 271 269 268 267 267 266 265 266 267 267 266 266 267 267 266 266 266 264 263 265 265 265 267 270 274 280 281 266 251 249 243 232 228
260 280 286 285 292 288 271 273 298 306 300 299 299 296 295 297 298 299 298 295 293 292 292 292 291 289 290 290 289 288 287 287 288 287 285 283 283 283 282 281 281 280 281 281 281 283 285 285 283 282 280 277 275 273 271 269 269 269 268 269 269 267 266 266 266 265 265 265 264 263 263 263 262 261 259 258 261 266 272 270 255 244 239 229 223 229
301 306 291 281 287 289 279 277 285 292 294 297 297 296 296 296 294 293 291 289 289 290 291 292 290 289 290 288 286 284 283 284 285 284 283 282 282 282 282 282 282 282 282 282 281 281 281 281 281 280 279 277 275 273 271 270 270 270 270 270 269 266 265 265 263 261 261 261 260 260 261 261 260 260 258 256 258 264 266 257 244 234 225 220 226 228
343 356 304 278 280 284 280 281 288 293 294 295 294 295 295 293 291 291 290 290 292 292 290 289 290 289 287 285 283 282 281 282 282 281 281 280 280 279 279 279 280 281 280 280 280 280 279 278 278 277 276 275 274 272 271 270 269 269 270 270 267 266 264 262 261 260 259 258 257 257 258 258 258 258 256 255 258 260 255 241 231 227 225 225 221 200
19 32 317 279 275 280 286 291 293 292 291 291 292 293 295 295 297 299 298 297 295 292 289 287 286 286 285 283 282 281 282 281 281 281 280 279 278 278 278 277 277 278 278 279 279 279 279 278 277 277 276 275 275 273 271 270 269 268 268 268 267 267 264 260 258 258 258 259 258 257 257 256 256 256 253 252 252 247 233 222 223 232 236 223 196 177
297 306 297 290 286 283 285 291 295 295 294 295 296 298 304 308 308 307 304 299 293 289 289 288 286 284 283 282 282 282 281 281 280 280 279 278 277 277 277 278 278 278 278 278 278 278 278 278 278 278 277 276 275 274 272 271 270 269 268 267 266 264 261 259 257 256 257 257 257 256 255 254 254 252 248 243 238 230 223 222 223 217 195 180 173 169
280 284 293 295 288 283 290 306 314 311 300 297 301 305 309 309 306 302 300 297 295 294 293 292 289 286 284 284 284 283 281 281 280 278 277 276 277 277 277 278 279 279 278 279 279 278 277 277 277 277 276 275 275 274 273 271 270 269 268 266 264 260 258 257 257 256 255 254 252 253 252 251 251 248 236 226 224 223 218 207 191 180 174 169 165 161
282 303 313 304 292 290 298 307 312 307 295 295 301 305 307 306 304 302 302 302 303 303 301 299 296 294 292 290 287 285 284 285 285 283 280 278 277 277 278 278 279 280 281 281 280 279 279 279 279 278 277 276 276 274 273 271 268 266 265 263 260 258 256 256 255 254 251 248 247 247 245 245 245 234 216 208 210 212 203 182 168 164 163 161 159 158
Height
1473 1474 1471 1466 1463 1463 1463 1464 1465 1465 1462 1459 1458 1456 1452 1451 1451 1444 1448 1456 1455 1459 1457 1450 1454 1454 1450 1451 1452 1456 1462 1462 1461 1462 1464 1465 1466 1467 1468 1470 1476 1482 1485 1487 1489 1492 1497 1499 1498 1497 1497 1497 1498 1500 1502 1504 1506 1507 1509 1510 1512 1513 1514 1515 1516 1517 1518 1519 1520 1520 1521 1522 1522 1522 1522 1523 1523 1523 1523 1522 1523 1523 1523 1523 1524 1524
1475 1475 1467 1461 1463 1466 1466 1467 1469 1468 1467 1466 1463 1460 1456 1453 1450 1443 1448 1456 1458 1462 1458 1449 1453 1456 1453 1453 1453 1457 1462 1462 1460 1461 1463 1464 1465 1466 1467 1468 1472 1478 1482 1484 1486 1491 1495 1496 1494 1493 1494 1495 1497 1499 1501 1503 1505 1507 1508 1510 1511 1513 1514 1515 1516 1518 1518 1519 1520 1521 1521 1522 1522 1523 1523 1523 1522 1522 1522 1522 1522 1522 1523 1523 1523 1524
1475 1470 1461 1461 1466 1468 1469 1470 1470 1470 1469 1468 1464 1462 1458 1452 1449 1449 1453 1457 1458 1463 1459 1451 1455 1458 1454 1452 1453 1457 1460 1460 1459 1460 1462 1463 1465 1466 1467 1468 1470 1474 1478 1480 1484 1489 1492 1492 1490 1490 1491 1493 1495 1497 1500 1502 1503 1505 1508 1509 1511 1512 1514 1515 1516 1517 1518 1518 1519 1520 1521 1522 1523 1523 1523 1523 1522 1522 1522 1522 1522 1522 1523 1523 1523 1523
1469 1463 1459 1464 1468 1469 1471 1471 1471 1471 1468 1466 1463 1461 1458 1451 1449 1455 1459 1459 1459 1462 1460 1455 1455 1457 1455 1452 1453 1457 1457 1457 1459 1461 1462 1463 1464 1466 1467 1468 1470 1472 1474 1478 1482 1485 1487 1488 1487 1488 1489 1492 1494 1496 1498 1500 1502 1504 1506 1508 1510 1511 1513 1515 1516 1517 1517 1518 1518 1519 1520 1521 1522 1522 1522 1523 1523 1523 1523 1522 1523 1523 1523 1523 1523 1524
1463 1461 1462 1466 1469 1470 1471 1471 1471 1470 1466 1463 1460 1459 1456 1450 1450 1455 1460 1462 1462 1463 1462 1461 1463 1461 1456 1454 1452 1453 1455 1456 1459 1462 1463 1463 1465 1466 1468 1468 1470 1472 1472 1476 1480 1482 1484 1484 1485 1486 1488 1490 1492 1494 1496 1498 1501 1503 1505 1507 1509 1510 1512 1514 1515 1516 1516 1517 1518 1518 1519 1520 1521 1522 1523 1524 1524 1524 1524 1524 1523 1523 1523 1523 1524 1524
1461 1463 1465 1466 1469 1469 1469 1469 1468 1468 1464 1460 1458 1458 1456 1453 1454 1457 1461 1465 1468 1467 1461 1462 1473 1467 1450 1448 1450 1450 1455 1457 1457 1459 1461 1462 1464 1466 1468 1470 1472 1473 1473 1474 1477 1480 1483 1484 1484 1485 1486 1488 1490 1492 1494 1497 1499 1502 1504 1506 1507 1509 1511 1513 1514 1515 1516 1517 1517 1518 1519 1520 1521 1523 1524 1524 1525 1525 1525 1525 1525 1524 1524 1524 1524 1524
1461 1465 1465 1467 1470 1468 1469 1467 1463 1465 1466 1460 1456 1456 1457 1456 1457 1460 1461 1465 1469 1466 1459 1460 1473 1470 1451 1445 1448 1450 1455 1456 1455 1457 1457 1459 1462 1464 1466 1468 1471 1473 1474 1476 1477 1479 1482 1483 1483 1484 1485 1486 1488 1490 1493 1495 1498 1500 1503 1504 1506 1508 1510 1512 1513 1515 1515 1516 1517 1518 1520 1521 1522 1523 1524 1524 1525 1525 1525 1525 1525 1525 1525 1525 1525 1525
1460 1466 1467 1468 1470 1468 1468 1464 1459 1461 1465 1463 1457 1455 1458 1457 1458 1461 1461 1464 1461 1458 1460 1459 1463 1469 1461 1451 1448 1450 1455 1455 1455 1458 1457 1457 1460 1462 1464 1467 1469 1472 1474 1476 1477 1478 1480 1481 1482 1483 1483 1485 1486 1488 1490 1493 1496 1498 1501 1503 1505 1507 1508 1510 1512 1514 1515 1516 1517 1518 1520 1521 1523 1523 1524 1524 1525 1525 1525 1526 1526 1526 1526 1526 1526 1526
1462 1466 1468 1468 1470 1468 1463 1457 1456 1460 1463 1462 1458 1456 1456 1455 1456 1458 1459 1461 1457 1459 1467 1459 1457 1469 1466 1450 1447 1452 1455 1455 1455 1457 1458 1458 1460 1462 1466 1468 1470 1472 1473 1475 1476 1477 1478 1480 1481 1482 1482 1484 1485 1486 1488 1490 1493 1496 1499 1501 1503 1505 1507 1509 1511 1512 1514 1515 1516 1518 1520 1521 1522 1523 1523 1524 1525 1525 1525 1526 1526 1527 1527 1527 1527 1527
1462 1464 1465 1465 1466 1464 1457 1451 1452 1459 1460 1458 1458 1458 1455 1454 1454 1456 1460 1460 1460 1469 1473 1460 1458 1470 1466 1451 1449 1455 1457 1455 1454 1456 1458 1459 1462 1465 1468 1470 1470 1472 1473 1474 1475 1476 1477 1478 1479 1480 1481 1482 1483 1484 1486 1488 1490 1493 1496 1498 1502 1504 1506 1507 1509 1511 1513 1514 1515 1517 1519 1521 1522 1523 1523 1524 1525 1525 1526 1526 1527 1527 1527 1527 1527 1527
1460 1463 1464 1463 1463 1459 1455 1453 1454 1459 1459 1458 1460 1459 1457 1456 1455 1458 1460 1460 1469 1477 1469 1458 1455 1465 1470 1457 1448 1453 1457 1453 1453 1457 1460 1461 1464 1467 1468 1470 1470 1471 1472 1473 1473 1474 1475 1475 1476 1478 1479 1480 1481 1482 1484 1486 1487 1490 1492 1495 1499 1502 1504 1506 1508 1510 1512 1513 1515 1517 1518 1520 1521 1522 1523 1524 1524 1525 1526 1526 1527 1527 1528 1528 1527 1528
1458 1463 1463 1460 1461 1459 1458 1458 1458 1459 1458 1460 1460 1457 1462 1465 1462 1466 1464 1466 1480 1479 1461 1452 1451 1461 1473 1460 1445 1450 1455 1453 1454 1458 1461 1464 1465 1468 1470 1470 1470 1471 1472 1472 1472 1472 1472 1473 1473 1475 1477 1478 1479 1480 1482 1483 1485 1487 1489 1492 1496 1498 1501 1504 1507 1509 1510 1512 1514 1516 1518 1519 1520 1521 1522 1523 1523 1525 1525 1526 1527 1527 1527 1528 1527 1528
1459 1457 1455 1456 1459 1458 1460 1459 1457 1459 1459 1459 1458 1461 1474 1478 1476 1481 1477 1474 1479 1471 1455 1451 1455 1463 1466 1452 1445 1452 1454 1455 1457 1458 1462 1466 1468 1470 1470 1470 1471 1472 1472 1472 1472 1472 1471 1471 1471 1472 1474 1476 1478 1479 1480 1481 1483 1485 1487 1490 1493 1495 1498 1501 1504 1507 1509 1510 1512 1514 1516 1518 1519 1520 1521 1522 1523 1523 1524 1525 1526 1527 1527 1527 1527 1528
1460 1452 1448 1453 1457 1457 1459 1457 1457 1460 1460 1459 1458 1464 1476 1481 1488 1491 1482 1476 1474 1466 1457 1454 1461 1468 1461 1448 1446 1451 1454 1456 1459 1462 1465 1468 1470 1471 1470 1471 1472 1472 1473 1473 1473 1473 1472 1471 1471 1472 1473 1475 1477 1479 1480 1481 1482 1484 1486 1489 1491 1493 1495 1499 1502 1505 1507 1509 1511 1513 1515 1517 1518 1519 1520 1522 1522 1522 1523 1524 1525 1526 1527 1527 1527 1527
1464 1461 1453 1453 1456 1456 1456 1453 1452 1453 1456 1456 1451 1458 1467 1471 1481 1486 1478 1475 1473 1467 1463 1462 1468 1470 1462 1455 1451 1450 1455 1457 1459 1463 1466 1468 1469 1471 1471 1471 1473 1473 1474 1474 1473 1473 1472 1472 1472 1472 1473 1475 1477 1479 1480 1481 1482 1483 1485 1487 1490 1492 1493 1497 1500 1502 1505 1507 1509 1512 1514 1515 1516 1518 1519 1521 1521 1522 1523 1523 1523 1525 1526 1526 1527 1527
1465 1462 1451 1452 1454 1454 1455 1451 1449 1451 1456 1454 1447 1454 1462 1459 1464 1471 1470 1469 1471 1473 1469 1466 1466 1458 1453 1456 1452 1452 1456 1456 1460 1463 1464 1468 1469 1470 1472 1472 1473 1474 1474 1474 1474 1474 1473 1472 1473 1473 1474 1476 1477 1479 1480 1481 1482 1483 1485 1487 1489 1492 1493 1496 1498 1500 1503 1505 1507 1510 1512 1514 1515 1517 1518 1519 1520 1521 1522 1523 1523 1523 1524 1525 1526 1526
1467 1459 1447 1452 1455 1451 1453 1451 1450 1455 1456 1453 1453 1457 1454 1448 1454 1465 1468 1466 1472 1480 1472 1461 1461 1454 1453 1457 1451 1453 1457 1455 1459 1461 1462 1467 1468 1470 1472 1472 1474 1474 1474 1475 1474 1474 1474 1473 1474 1474 1475 1476 1477 1478 1479 1480 1481 1482 1484 1487 1489 1492 1494 1495 1497 1499 1502 1504 1506 1508 1510 1512 1514 1515 1517 1518 1519 1520 1521 1522 1522 1522 1523 1523 1524 1524
1467 1463 1450 1451 1453 1450 1452 1454 1451 1452 1453 1453 1456 1454 1448 1447 1451 1458 1469 1472 1475 1479 1467 1457 1460 1458 1459 1459 1451 1452 1456 1455 1458 1459 1461 1466 1467 1469 1471 1472 1475 1475 1475 1476 1475 1475 1475 1475 1476 1476 1476 1477 1477 1477 1479 1480 1481 1482 1484 1486 1489 1492 1493 1495 1497 1499 1501 1503 1505 1507 1509 1510 1512 1514 1515 1517 1518 1519 1519 1520 1521 1521 1521 1522 1522 1522
1465 1471 1458 1447 1450 1450 1451 1456 1455 1450 1449 1451 1451 1448 1451 1461 1462 1459 1469 1477 1478 1479 1470 1460 1457 1455 1455 1454 1451 1452 1454 1454 1456 1457 1460 1464 1465 1468 1471 1472 1475 1475 1476 1477 1476 1477 1476 1476 1477 1477 1477 1478 1477 1477 1478 1479 1480 1481 1483 1486 1488 1491 1493 1495 1497 1498 1500 1502 1505 1506 1508 1510 1511 1513 1514 1515 1517 1517 1518 1519 1520 1521 1521 1521 1521 1521
1464 1473 1465 1449 1447 1451 1451 1455 1458 1452 1447 1448 1449 1448 1450 1457 1459 1458 1461 1465 1470 1475 1473 1466 1461 1455 1449 1446 1447 1451 1451 1451 1455 1456 1459 1462 1465 1469 1471 1473 1475 1476 1477 1477 1477 1478 1478 1478 1478 1478 1479 1479 1477 1477 1477 1479 1480 1482 1485 1487 1489 1491 1492 1495 1497 1498 1500 1501 1503 1505 1507 1509 1511 1512 1513 1514 1516 1516 1517 1518 1520 1521 1520 1520 1520 1520
1464 1470 1471 1457 1448 1454 1455 1452 1452 1450 1447 1449 1452 1452 1451 1451 1452 1455 1455 1453 1458 1466 1469 1470 1468 1455 1443 1440 1442 1447 1449 1450 1453 1456 1458 1462 1466 1470 1472 1474 1475 1476 1477 1478 1479 1479 1479 1479 1479 1479 1480 1479 1476 1475 1475 1478 1480 1483 1486 1487 1489 1491 1493 1495 1496 1496 1498 1500 1502 1504 1506 1508 1509 1510 1512 1513 1515 1516 1516 1517 1519 1520 1520 1519 1520 1519
1467 1468 1471 1466 1457 1456 1452 1446 1446 1448 1448 1449 1450 1450 1450 1450 1453 1461 1462 1452 1451 1458 1460 1464 1467 1454 1441 1441 1443 1444 1447 1449 1451 1455 1459 1463 1467 1471 1473 1474 1475 1476 1478 1478 1479 1480 1480 1480 1481 1480 1480 1479 1476 1475 1476 1478 1481 1484 1487 1487 1489 1492 1493 1495 1495 1496 1498 1499 1501 1503 1504 1506 1507 1508 1509 1510 1513 1515 1515 1516 1517 1519 1519 1519 1519 1518
1470 1470 1471 1469 1462 1454 1448 1444 1448 1451 1449 1450 1450 1448 1449 1450 1453 1462 1466 1458 1453 1455 1452 1455 1462 1455 1444 1444 1446 1445 1446 1448 1452 1456 1460 1464 1468 1471 1473 1474 1475 1476 1478 1479 1479 1480 1480 1481 1481 1481 1480 1479 1478 1478 1478 1479 1481 1484 1485 1486 1488 1490 1492 1494 1495 1496 1497 1498 1500 1501 1502 1503 1505 1507 1508 1509 1509 1511 1513 1515 1515 1517 1518 1518 1518 1518
1473 1474 1474 1470 1460 1452 1446 1444 1445 1447 1451 1453 1451 1449 1450 1450 1451 1455 1457 1457 1459 1458 1455 1460 1464 1457 1450 1448 1448 1448 1448 1451 1455 1458 1461 1466 1469 1471 1473 1474 1476 1476 1477 1479 1479 1480 1481 1481 1481 1482 1481 1481 1481 1481 1481 1482 1483 1484 1484 1485 1486 1487 1490 1493 1495 1496 1496 1497 1499 1500 1500 1501 1503 1504 1506 1507 1507 1508 1510 1512 1513 1514 1515 1516 1517 1517
1476 1473 1473 1473 1469 1462 1456 1451 1448 1448 1451 1454 1452 1450 1449 1447 1450 1454 1454 1457 1463 1460 1458 1465 1465 1458 1457 1453 1450 1452 1453 1454 1458 1459 1462 1466 1469 1471 1473 1474 1476 1477 1477 1478 1479 1480 1481 1481 1482 1482 1483 1483 1483 1484 1484 1484 1485 1485 1484 1485 1486 1487 1488 1490 1494 1495 1495 1496 1497 1498 1499 1499 1501 1502 1503 1504 1505 1505 1506 1508 1509 1510 1511 1513 1513 1513
1476 1473 1472 1475 1476 1474 1468 1460 1455 1454 1454 1454 1453 1450 1448 1449 1454 1460 1462 1465 1467 1460 1456 1461 1458 1455 1458 1456 1453 1455 1455 1456 1459 1461 1463 1466 1468 1470 1472 1474 1476 1477 1478 1479 1479 1480 1481 1482 1482 1483 1484 1484 1485 1485 1486 1486 1486 1486 1486 1486 1488 1489 1488 1489 1491 1492 1493 1496 1496 1496 1497 1497 1499 1501 1501 1502 1502 1502 1502 1503 1504 1506 1508 1509 1510 1510
1476 1474 1472 1473 1472 1469 1464 1456 1452 1455 1458 1459 1458 1453 1451 1453 1458 1463 1468 1469 1465 1460 1457 1455 1451 1453 1455 1454 1454 1456 1456 1456 1459 1461 1463 1465 1467 1470 1471 1474 1476 1477 1478 1479 1479 1481 1481 1482 1483 1483 1484 1485 1486 1486 1487 1487 1487 1487 1488 1488 1489 1490 1490 1490 1492 1492 1493 1494 1494 1494 1495 1497 1499 1499 1499 1500 1500 1500 1500 1500 1501 1503 1504 1506 1507 1507
1478 1476 1473 1471 1470 1465 1461 1458 1455 1456 1457 1458 1459 1458 1456 1456 1457 1462 1469 1466 1463 1466 1462 1452 1450 1456 1455 1451 1452 1455 1457 1458 1459 1462 1464 1465 1467 1470 1471 1473 1475 1476 1478 1479 1480 1481 1481 1482 1483 1483 1484 1485 1486 1487 1487 1487 1488 1488 1489 1489 1490 1490 1490 1491 1492 1492 1492 1492 1492 1493 1494 1495 1496 1497 1497 1498 1499 1499 1499 1499 1500 1501 1502 1503 1504 1505
1478 1477 1472 1470 1469 1465 1461 1460 1457 1455 1456 1456 1457 1459 1458 1458 1457 1461 1464 1462 1463 1469 1464 1454 1455 1459 1457 1454 1453 1452 1456 1458 1459 1462 1464 1465 1467 1469 1470 1472 1474 1475 1477 1479 1480 1481 1481 1482 1483 1483 1485 1486 1486 1487 1487 1487 1488 1488 1489 1489 1489 1490 1490 1490 1491 1491 1491 1492 1492 1493 1493 1493 1493 1494 1495 1496 1497 1497 1498 1498 1499 1500 1500 1501 1501 1502
1479 1476 1471 1470 1469 1464 1461 1459 1456 1456 1457 1457 1456 1455 1456 1457 1457 1458 1459 1459 1461 1463 1460 1458 1460 1459 1457 1457 1455 1453 1456 1458 1460 1461 1463 1465 1467 1468 1469 1471 1472 1474 1476 1477 1480 1481 1482 1482 1483 1484 1485 1485 1486 1487 1487 1488 1488 1488 1489 1489 1489 1489 1489 1489 1489 1490 1491 1492 1492 1493 1493 1493 1493 1493 1494 1495 1496 1496 1496 1497 1498 1498 1499 1499 1499 1499
1480 1478 1472 1472 1472 1468 1463 1460 1458 1458 1459 1458 1457 1454 1454 1455 1455 1456 1457 1457 1458 1459 1458 1460 1463 1460 1457 1457 1456 1456 1457 1458 1459 1460 1461 1464 1466 1467 1468 1469 1470 1471 1473 1476 1479 1480 1481 1482 1483 1484 1484 1485 1486 1487 1487 1487 1488 1488 1488 1488 1488 1489 1488 1488 1489 1489 1490 1491 1491 1492 1492 1493 1493 1493 1494 1494 1495 1495 1495 1495 1496 1496 1497 1497 1497 1497
1480 1479 1473 1473 1475 1470 1464 1464 1462 1459 1458 1458 1457 1455 1455 1455 1456 1456 1456 1456 1457 1459 1460 1464 1465 1460 1456 1456 1456 1456 1455 1455 1457 1458 1459 1461 1463 1465 1466 1467 1468 1470 1472 1474 1477 1479 1480 1481 1482 1483 1484 1485 1486 1486 1487 1487 1487 1488 1488 1487 1488 1488 1488 1488 1488 1489 1490 1490 1491 1491 1492 1492 1492 1493 1493 1493 1494 1494 1494 1495 1495 1495 1495 1495 1495 1495
1476 1478 1475 1475 1476 1471 1465 1463 1462 1462 1466 1464 1458 1455 1455 1454 1454 1453 1452 1452 1454 1458 1461 1462 1460 1456 1454 1457 1459 1458 1456 1454 1455 1457 1458 1459 1461 1464 1465 1466 1467 1469 1471 1474 1476 1477 1479 1480 1481 1482 1483 1484 1485 1485 1486 1486 1486 1486 1486 1486 1487 1487 1488 1488 1489 1489 1489 1490 1490 1491 1491 1492 1492 1492 1492 1492 1492 1493 1493 1493 1494 1494 1494 1493 1493 1492
1476 1478 1477 1476 1477 1473 1467 1465 1467 1472 1473 1465 1458 1457 1458 1456 1456 1455 1454 1454 1455 1457 1458 1458 1456 1454 1455 1458 1460 1460 1459 1458 1458 1459 1459 1460 1461 1464 1465 1466 1467 1469 1472 1474 1475 1477 1478 1478 1480 1480 1481 1482 1483 1483 1484 1484 1485 1485 1485 1485 1486 1486 1487 1487 1488 1488 1489 1489 1489 1490 1490 1490 1491 1491 1491 1490 1491 1491 1491 1492 1492 1492 1492 1491 1490 1490
1478 1480 1479 1477 1477 1474 1469 1471 1478 1477 1467 1459 1458 1461 1462 1462 1461 1460 1459 1458 1457 1459 1460 1459 1458 1458 1458 1459 1461 1463 1463 1462 1462 1461 1461 1462 1463 1464 1464 1465 1466 1468 1472 1475 1476 1476 1477 1477 1478 1479 1480 1481 1481 1482 1483 1484 1484 1484 1484 1485 1485 1485 1485 1486 1486 1487 1487 1487 1488 1488 1488 1488 1488 1489 1488 1488 1489 1489 1489 1490 1490 1489 1489 1489 1489 1488
1478 1480 1479 1477 1476 1473 1472 1474 1476 1469 1457 1455 1460 1462 1464 1465 1464 1464 1465 1461 1459 1462 1463 1462 1460 1459 1459 1461 1463 1463 1464 1464 1463 1462 1463 1464 1464 1464 1465 1464 1466 1469 1472 1474 1476 1477 1477 1477 1478 1478 1479 1479 1480 1481 1482 1482 1483 1483 1483 1484 1484 1484 1484 1484 1485 1485 1485 1486 1486 1486 1486 1486 1486 1486 1486 1486 1486 1487 1487 1487 1487 1487 1487 1487 1486 1486
1476 1477 1478 1477 1474 1473 1473 1471 1467 1463 1459 1459 1463 1465 1467 1469 1468 1469 1471 1467 1463 1465 1466 1464 1463 1461 1461 1463 1463 1464 1465 1465 1464 1463 1465 1468 1468 1467 1467 1466 1467 1470 1472 1474 1475 1477 1478 1478 1478 1478 1478 1478 1479 1479 1480 1480 1481 1481 1481 1482 1482 1482 1482 1483 1483 1483 1484 1484 1484 1484 1484 1484 1484 1484 1484 1484 1484 1484 1485 1485 1485 1485 1485 1484 1484 1484
1474 1475 1476 1478 1475 1473 1474 1471 1469 1469 1466 1465 1468 1470 1472 1474 1472 1474 1476 1470 1465 1466 1467 1466 1466 1463 1463 1464 1465 1466 1467 1466 1464 1464 1466 1469 1470 1470 1470 1470 1470 1471 1472 1473 1475 1476 1477 1478 1477 1477 1477 1477 1477 1478 1478 1478 1479 1479 1480 1480 1480 1481 1481 1481 1481 1481 1482 1482 1482 1482 1482 1482 1482 1482 1482 1482 1482 1482 1482 1482 1482 1482 1482 1482 1482 1482
1474 1474 1475 1477 1476 1475 1477 1477 1475 1473 1469 1469 1472 1472 1473 1475 1475 1476 1477 1469 1465 1469 1471 1469 1468 1467 1467 1468 1468 1469 1469 1467 1466 1467 1469 1470 1471 1472 1473 1472 1472 1472 1473 1473 1474 1476 1477 1477 1476 1476 1476 1475 1476 1476 1476 1477 1477 1478 1478 1479 1479 1479 1478 1478 1479 1479 1479 1479 1479 1479 1479 1479 1479 1479 1479 1479 1479 1479 1479 1479 1480 1480 1480 1480 1480 1480
1474 1475 1476 1478 1477 1476 1477 1477 1473 1468 1469 1473 1476 1474 1475 1476 1478 1481 1481 1473 1469 1472 1474 1473 1473 1473 1472 1472 1472 1471 1470 1468 1469 1472 1473 1473 1472 1473 1473 1473 1473 1474 1474 1474 1474 1475 1476 1475 1474 1474 1474 1474 1474 1474 1475 1475 1475 1476 1476 1476 1477 1476 1475 1476 1476 1476 1476 1476 1476 1476 1476 1476 1476 1476 1476 1476 1476 1476 1476 1476 1477 1477 1477 1477 1477 1478
1479 1480 1480 1479 1477 1475 1476 1476 1471 1467 1470 1476 1477 1477 1477 1477 1479 1481 1479 1475 1474 1476 1475 1475 1477 1476 1475 1475 1474 1472 1471 1471 1472 1474 1474 1473 1473 1473 1473 1473 1474 1474 1474 1474 1474 1474 1474 1473 1472 1472 1472 1472 1472 1472 1473 1473 1473 1473 1473 1474 1474 1473 1473 1473 1473 1473 1473 1473 1473 1473 1473 1473 1474 1473 1473 1472 1472 1472 1472 1473 1474 1474 1475 1475 1475 1475
1482 1483 1482 1481 1479 1476 1474 1475 1472 1470 1475 1480 1479 1478 1478 1478 1478 1477 1476 1478 1479 1478 1476 1477 1478 1477 1477 1476 1475 1474 1473 1473 1474 1474 1473 1473 1473 1473 1474 1473 1473 1473 1473 1473 1473 1472 1472 1471 1470 1470 1470 1470 1470 1470 1470 1470 1470 1470 1471 1470 1470 1470 1470 1470 1470 1470 1470 1470 1470 1470 1470 1470 1471 1470 1469 1469 1468 1468 1469 1469 1470 1471 1471 1472 1472 1472
1482 1484 1482 1478 1478 1477 1476 1478 1477 1477 1480 1482 1480 1479 1479 1479 1479 1479 1480 1480 1480 1478 1478 1478 1477 1477 1478 1477 1476 1476 1474 1474 1474 1474 1473 1472 1472 1472 1473 1472 1472 1471 1471 1470 1470 1469 1469 1468 1468 1467 1467 1467 1468 1467 1467 1467 1467 1467 1467 1466 1466 1467 1467 1467 1467 1467 1467 1467 1467 1467 1467 1467 1467 1467 1466 1465 1465 1465 1465 1466 1467 1468 1468 1468 1469 1468
1482 1484 1481 1476 1478 1481 1480 1477 1477 1478 1481 1482 1482 1481 1481 1482 1482 1482 1482 1480 1479 1479 1479 1478 1477 1478 1478 1477 1476 1476 1474 1474 1473 1472 1472 1471 1470 1470 1469 1469 1469 1469 1468 1467 1467 1466 1466 1465 1464 1464 1464 1464 1464 1464 1464 1464 1463 1463 1463 1462 1463 1463 1463 1463 1463 1463 1463 1463 1463 1463 1464 1463 1463 1463 1463 1462 1462 1462 1462 1462 1464 1464 1464 1464 1465 1465
1481 1481 1481 1480 1481 1483 1481 1476 1475 1477 1479 1479 1481 1481 1481 1482 1483 1483 1482 1480 1479 1479 1478 1477 1477 1477 1476 1477 1476 1474 1473 1472 1471 1470 1470 1469 1468 1467 1466 1465 1465 1464 1464 1463 1462 1462 1462 1462 1460 1460 1460 1459 1460 1460 1460 1460 1459 1459 1458 1458 1459 1459 1459 1459 1459 1459 1459 1459 1459 1460 1460 1460 1460 1460 1460 1460 1459 1459 1459 1459 1460 1460 1461 1461 1461 1463
1481 1482 1484 1484 1484 1483 1482 1479 1477 1478 1478 1479 1480 1480 1480 1481 1481 1481 1480 1479 1478 1477 1477 1477 1477 1476 1476 1476 1474 1472 1471 1470 1469 1468 1467 1466 1465 1464 1463 1462 1461 1460 1459 1459 1458 1458 1458 1458 1457 1456 1455 1455 1456 1456 1455 1456 1455 1454 1454 1455 1455 1455 1455 1455 1455 1455 1455 1455 1455 1456 1456 1456 1456 1456 1456 1456 1456 1456 1456 1456 1456 1457 1458 1458 1459 1461
1483 1486 1487 1486 1487 1486 1484 1480 1478 1479 1479 1480 1480 1479 1479 1479 1479 1478 1478 1477 1476 1477 1477 1476 1476 1475 1474 1474 1472 1470 1468 1467 1466 1464 1463 1462 1461 1460 1459 1458 1457 1456 1456 1455 1454 1455 1454 1454 1453 1452 1451 1451 1451 1451 1451 1451 1451 1450 1451 1451 1451 1451 1451 1451 1451 1451 1451 1451 1451 1452 1452 1452 1452 1453 1453 1453 1453 1453 1453 1452 1453 1454 1455 1456 1457 1460
1486 1489 1488 1486 1486 1485 1483 1481 1480 1480 1480 1479 1479 1478 1477 1477 1477 1477 1477 1476 1476 1476 1475 1475 1475 1473 1471 1470 1469 1466 1464 1463 1463 1461 1459 1458 1457 1456 1455 1454 1452 1452 1452 1451 1451 1451 1450 1449 1448 1448 1447 1447 1447 1447 1447 1446 1446 1446 1447 1447 1447 1447 1447 1447 1447 1447 1448 1448 1448 1448 1448 1448 1449 1449 1450 1450 1450 1450 1450 1450 1450 1452 1453 1455 1457 1458
1487 1488 1487 1486 1485 1484 1483 1481 1480 1479 1478 1477 1478 1478 1477 1477 1477 1477 1477 1477 1476 1475 1474 1473 1472 1471 1469 1467 1466 1464 1462 1460 1459 1457 1455 1454 1452 1451 1451 1450 1449 1449 1448 1448 1447 1447 1446 1445 1444 1444 1443 1443 1442 1443 1442 1442 1442 1442 1442 1442 1443 1443 1443 1443 1443 1443 1444 1444 1444 1444 1445 1445 1445 1446 1447 1447 1446 1446 1447 1448 1450 1451 1452 1454 1456 1458
1488 1486 1485 1486 1487 1484 1482 1481 1481 1482 1480 1479 1479 1479 1480 1479 1478 1477 1476 1475 1473 1472 1471 1469 1468 1467 1466 1464 1463 1462 1459 1457 1456 1455 1452 1450 1449 1448 1447 1447 1446 1445 1444 1444 1443 1442 1442 1441 1440 1439 1439 1438 1438 1438 1438 1437 1437 1437 1438 1438 1438 1439 1439 1439 1439 1439 1440 1440 1440 1441 1441 1442 1442 1443 1444 1443 1442 1443 1445 1447 1449 1450 1451 1453 1455 1457
1489 1488 1487 1489 1488 1486 1484 1484 1485 1485 1483 1481 1481 1480 1480 1479 1477 1475 1473 1472 1470 1469 1468 1466 1464 1463 1462 1461 1460 1458 1456 1454 1452 1451 1449 1447 1446 1445 1444 1444 1443 1442 1441 1440 1438 1437 1437 1436 1435 1434 1434 1433 1433 1433 1432 1432 1432 1433 1433 1433 1433 1434 1434 1434 1435 1435 1435 1436 1436 1436 1437 1438 1439 1440 1441 1440 1439 1441 1443 1445 1448 1451 1452 1453 1455 1457